Wind_Speed
19 21 22 22 24 25 25 24 23 23 22 22 21 20 20 19 18 16 15 14 12 11 10 9 9 10 11 10 8 8 8 9 10 10 11 14 13 12 12 9 7 9 10 10 9 9 9 10 12 12 11 9 7 8 7 5 5 3 3 3 2 3 2 4 6 5 3 4 7 11 13 9 5 7 10 8 8 12 9 7 8 9 9 8 6 10 15 19
21 22 23 23 24 25 26 25 24 23 23 22 21 20 19 18 17 16 14 13 12 11 10 10 10 11 12 10 8 8 7 9 10 10 11 12 13 11 11 10 8 10 11 11 10 10 10 11 12 13 11 8 6 7 7 6 5 3 3 3 3 5 3 2 4 5 2 5 12 13 13 11 8 11 12 6 6 10 8 5 7 10 11 9 10 12 15 19
22 23 24 24 24 25 26 25 24 24 23 21 21 20 19 17 16 15 14 13 12 11 10 10 11 12 12 10 8 7 7 9 9 10 12 12 12 11 10 9 9 11 12 11 11 11 10 10 12 14 11 7 5 7 7 6 6 2 3 3 4 7 3 1 1 3 5 8 14 12 13 10 8 13 12 7 7 7 7 8 8 11 13 12 13 14 15 18
21 22 22 24 25 25 25 26 25 24 23 22 21 20 19 18 17 15 14 13 12 11 11 11 12 13 12 10 8 7 7 6 7 11 14 11 10 11 10 9 10 11 11 11 11 11 9 8 9 13 10 5 4 7 6 6 6 2 4 4 5 6 3 1 2 1 4 11 15 13 11 7 7 12 12 9 7 3 10 16 13 13 16 17 17 16 16 18
20 21 21 23 25 25 25 26 26 24 23 22 21 20 19 18 17 16 14 13 13 12 12 12 12 13 12 10 8 8 7 3 6 12 14 12 10 11 11 10 10 11 11 11 11 11 9 6 8 11 7 3 4 4 5 8 7 3 1 2 5 7 3 1 2 2 5 10 12 11 9 7 8 10 13 12 8 7 13 18 15 14 15 16 18 18 18 19
20 21 21 22 24 25 26 26 26 25 23 22 21 20 19 18 17 16 15 14 13 13 13 13 13 13 13 11 8 10 9 2 6 14 14 13 10 10 12 11 11 11 11 11 11 11 10 7 7 11 6 2 5 4 5 10 7 3 1 1 5 6 4 5 4 3 7 10 11 11 9 9 9 6 11 15 12 10 10 12 14 14 14 15 17 20 20 20
20 21 21 22 24 25 26 26 26 25 23 22 21 20 19 18 17 15 15 14 14 14 14 14 14 14 13 11 9 11 12 4 5 12 14 13 10 11 12 11 11 11 11 11 11 12 11 9 8 10 6 2 5 5 5 9 6 4 2 1 3 3 5 6 6 5 7 11 11 10 8 9 9 5 7 13 16 12 7 6 9 13 16 17 18 20 20 19
21 21 22 22 23 24 26 25 25 25 23 22 21 20 19 18 17 15 15 15 14 14 14 15 15 15 14 12 10 10 12 8 3 8 14 13 11 12 12 11 11 11 12 11 11 12 12 10 8 8 4 1 6 6 6 7 2 3 3 4 4 3 5 5 6 6 6 8 8 8 7 7 8 4 4 13 16 12 10 8 7 10 15 19 20 20 20 20
21 21 22 22 23 24 24 24 24 24 23 22 20 20 19 18 17 16 15 15 15 15 15 15 15 16 14 12 10 7 10 10 4 6 14 14 12 13 12 11 11 11 12 12 11 12 12 10 8 8 3 3 7 7 9 6 1 4 7 9 7 4 5 5 6 6 5 6 6 5 4 2 4 3 8 16 16 14 14 12 10 9 11 16 19 20 20 20
20 21 21 22 23 23 23 23 24 24 23 22 21 19 18 17 17 16 16 15 15 15 15 16 15 16 14 12 10 5 8 11 6 7 13 14 13 13 12 11 11 12 13 13 12 12 12 9 7 9 3 3 7 6 6 5 3 8 11 10 8 6 6 4 4 6 5 4 4 5 3 2 2 0 7 12 10 14 18 15 14 13 12 13 16 18 19 19
19 21 21 21 22 23 23 23 23 23 23 22 21 19 17 16 16 16 15 15 15 15 15 16 15 15 14 13 11 7 7 9 8 9 12 15 15 14 13 12 11 12 13 13 13 12 11 8 7 8 3 3 7 5 4 6 8 14 14 8 5 3 2 2 4 7 6 3 4 5 1 3 1 1 12 15 7 10 17 19 17 16 15 14 16 17 19 20
19 20 21 21 22 23 24 24 23 23 23 22 21 19 17 16 16 15 14 14 15 15 16 16 15 15 13 13 14 10 5 6 8 11 13 15 16 15 14 12 11 12 12 11 12 12 9 8 7 5 5 8 7 4 5 8 12 13 11 5 5 7 2 3 4 6 5 3 4 4 1 4 2 8 17 12 6 8 14 20 21 19 18 17 17 19 20 21
19 20 21 22 23 23 24 24 23 23 23 22 21 19 18 17 16 15 14 14 15 15 16 15 15 15 13 10 12 12 6 4 9 12 15 16 16 16 14 12 11 11 10 10 11 11 9 7 6 5 8 9 5 5 7 8 11 8 4 4 2 7 4 4 2 4 5 3 5 5 1 6 6 17 20 9 7 10 13 20 22 21 20 19 19 20 21 21
18 20 21 23 23 24 24 24 24 23 23 22 21 19 18 17 15 14 14 14 15 15 15 15 15 15 13 8 7 13 10 5 10 15 16 17 15 15 14 12 11 11 10 9 9 11 10 7 6 7 8 8 8 10 7 4 5 3 1 2 3 2 4 5 1 6 5 2 5 5 1 6 8 14 15 12 13 13 15 19 21 22 21 21 21 21 22 22
17 20 22 23 24 25 25 24 24 24 23 22 20 19 17 16 15 14 14 14 15 15 15 15 15 13 11 6 5 11 12 8 12 17 17 17 15 13 13 12 12 12 11 9 9 11 10 9 8 8 8 9 12 10 4 4 3 3 2 2 3 3 4 7 1 8 6 2 3 5 1 6 9 9 5 5 10 13 16 17 17 21 21 21 21 21 23 22
18 21 23 24 25 25 25 25 24 24 23 21 20 18 17 16 15 14 14 14 14 14 14 14 15 12 6 5 6 9 12 12 14 17 17 16 14 12 11 11 11 12 11 9 9 11 12 9 8 8 8 9 8 6 4 4 3 4 3 2 2 2 3 5 2 5 4 2 1 2 2 3 4 4 3 5 3 11 14 16 16 19 20 21 21 22 23 23
18 22 23 24 25 25 25 24 23 23 22 20 20 18 17 16 15 15 14 14 13 13 13 12 14 11 4 5 8 10 13 14 16 18 17 15 13 11 12 11 11 12 11 11 10 11 11 8 8 6 4 4 4 5 5 1 3 3 2 1 3 3 2 2 2 3 1 3 1 0 3 6 6 8 8 3 2 7 11 15 16 17 19 20 21 22 24 25
20 23 23 24 24 24 24 23 22 22 21 20 19 18 17 16 15 15 15 16 15 13 11 11 14 8 5 9 10 11 14 15 17 18 17 15 13 12 13 11 11 13 12 11 8 8 8 5 6 3 3 3 2 5 4 4 5 5 3 2 2 2 3 3 3 2 1 2 2 1 2 9 10 13 18 17 12 12 15 17 18 19 21 22 23 25 26 27
22 24 23 23 23 23 23 22 22 22 21 20 18 18 17 16 15 15 16 18 16 10 5 12 17 5 3 13 14 12 15 16 18 19 17 16 14 14 13 12 13 14 12 7 4 5 5 4 5 3 1 3 5 6 6 7 8 8 6 5 4 3 3 4 4 4 1 2 3 5 6 9 10 10 16 22 20 15 17 21 23 25 26 27 27 29 29 30
21 24 24 23 23 24 23 22 22 22 22 20 20 21 17 16 12 8 15 19 16 7 1 13 22 5 2 15 20 15 16 17 18 20 18 17 17 15 14 13 12 10 7 5 3 2 4 4 3 4 7 7 7 7 6 4 6 7 6 5 4 4 3 3 3 4 1 3 5 5 5 8 10 10 14 23 20 13 17 22 25 29 29 29 29 30 30 31
21 23 24 24 24 24 23 23 22 22 23 21 24 20 15 17 10 5 14 14 13 7 2 13 24 8 0 14 21 18 17 16 17 21 19 19 18 14 12 11 8 4 2 4 5 2 4 4 6 7 9 8 6 6 6 6 5 5 6 5 2 2 3 3 2 4 1 1 4 3 4 9 10 10 15 20 14 13 21 23 26 30 29 29 29 30 31 30
22 24 25 25 26 26 25 24 23 23 23 23 27 19 14 21 13 11 17 9 11 9 2 14 22 9 3 12 19 18 16 12 13 20 20 20 19 12 10 7 5 4 2 4 6 4 4 3 8 9 7 5 4 5 7 6 5 5 4 5 2 2 2 3 4 5 3 1 4 5 6 10 10 9 15 18 15 18 24 23 25 28 28 30 31 31 32 31
22 24 26 26 27 27 25 25 24 24 24 24 26 17 14 21 12 13 18 6 9 12 5 13 18 11 8 13 18 18 14 9 11 20 22 21 19 13 11 8 4 5 3 4 6 4 2 5 8 6 6 8 5 4 7 6 4 4 4 4 2 2 1 1 4 5 3 1 2 4 6 9 8 5 11 15 15 17 20 19 21 23 25 28 29 30 31 31
23 25 26 26 27 26 25 25 24 24 24 24 23 16 15 21 13 14 15 4 3 10 9 12 14 15 13 13 18 17 13 10 11 21 24 22 19 12 11 9 6 5 4 6 9 7 5 6 3 6 5 7 7 4 7 6 2 1 3 5 3 3 3 2 2 2 3 4 3 4 6 7 5 4 6 6 5 10 11 11 15 17 19 21 22 24 26 27
24 24 25 26 26 26 26 26 25 24 24 24 21 15 16 19 15 15 12 4 1 5 8 11 10 15 15 12 16 15 11 9 11 20 25 23 19 11 8 8 6 4 5 7 8 5 5 4 4 7 5 6 7 4 5 7 3 2 3 6 6 6 6 2 2 4 4 4 4 5 4 6 5 4 7 5 5 7 7 7 14 18 18 20 22 25 26 25
22 22 23 26 25 26 24 22 24 25 25 24 19 14 17 18 14 16 10 5 1 3 6 11 8 12 16 13 17 15 7 5 10 20 25 22 18 11 6 5 3 4 6 6 5 3 3 1 4 6 5 6 6 3 4 6 6 1 4 6 7 7 7 4 2 3 1 3 3 4 3 5 7 5 8 6 6 8 9 10 18 22 20 22 25 26 26 24
19 20 21 23 24 25 21 18 23 24 23 23 18 15 18 15 14 16 8 6 3 4 7 9 8 11 14 14 20 14 3 6 10 16 24 21 16 11 7 4 2 3 5 5 2 1 2 3 5 6 6 6 5 2 4 7 8 3 4 7 8 7 7 5 5 3 2 3 4 4 4 2 6 5 5 2 3 8 11 11 15 19 18 18 19 18 18 18
16 18 19 21 22 23 20 18 23 23 21 22 20 18 17 16 16 14 6 3 3 5 6 7 8 12 13 17 22 11 6 13 9 10 22 20 15 9 4 6 6 4 3 6 4 3 2 5 5 6 6 3 4 4 5 7 6 4 4 7 6 6 7 5 6 3 1 2 4 5 2 2 6 6 2 2 4 8 10 10 11 15 14 10 7 4 3 4
18 18 18 19 20 19 17 17 22 23 21 24 22 17 16 17 16 9 4 1 3 3 4 9 11 11 13 16 14 7 9 9 4 11 20 17 13 6 2 7 8 7 4 4 6 3 1 3 5 7 6 4 5 2 3 5 3 4 6 7 5 5 6 5 5 4 3 2 4 6 3 2 6 7 4 3 2 6 8 8 8 11 9 4 6 8 8 6
18 18 18 19 20 18 15 16 22 22 20 25 25 18 15 15 11 6 2 4 3 2 3 8 9 10 14 12 3 3 6 2 5 15 14 9 10 6 5 7 7 7 5 6 4 1 2 1 1 3 3 5 5 3 2 3 6 9 8 7 6 6 5 4 3 4 2 3 6 7 4 2 4 7 4 2 3 5 4 6 7 8 9 13 13 12 9 6
16 18 20 21 21 19 17 18 21 22 21 23 24 20 14 8 4 4 5 3 2 2 3 4 4 8 15 11 4 3 3 2 6 14 8 4 6 5 6 6 4 5 3 4 3 4 4 3 1 1 2 5 7 6 5 4 6 8 5 5 4 4 4 4 4 3 1 5 6 5 2 4 4 7 4 4 6 5 3 4 5 4 9 12 11 8 6 6
17 17 19 20 19 18 18 18 20 22 21 20 24 23 12 4 1 5 4 1 2 3 4 4 3 6 11 8 5 4 3 2 4 7 6 4 4 4 5 5 4 4 1 2 1 3 2 0 3 2 1 4 6 5 4 5 5 6 5 6 4 2 2 3 3 0 3 6 4 2 1 3 6 7 7 9 9 7 8 7 3 1 5 7 6 4 5 8
20 19 19 18 17 15 15 16 19 20 20 23 26 19 7 3 6 7 3 2 2 2 4 5 3 6 10 8 5 5 3 2 4 4 3 4 4 5 3 2 6 5 3 5 3 2 1 5 3 1 1 5 6 6 3 0 1 4 5 6 4 3 1 3 4 2 4 5 2 2 2 3 4 4 9 13 7 4 7 7 4 3 2 3 2 1 4 9
17 18 19 20 18 17 15 15 18 18 21 27 24 11 4 5 7 5 5 4 1 2 2 5 7 7 8 5 5 5 3 1 5 5 3 4 5 6 5 4 4 5 4 4 3 5 4 4 4 4 2 6 7 5 7 6 4 4 4 6 5 5 5 4 4 3 4 3 3 3 1 3 3 2 7 12 9 5 6 7 6 5 4 3 4 4 4 8
11 12 15 18 19 19 17 16 17 17 24 26 15 5 7 9 5 4 6 5 1 3 3 5 9 9 5 1 1 5 3 1 4 4 4 6 6 7 6 5 6 4 6 5 2 3 4 4 6 2 1 9 8 4 6 7 2 2 2 5 3 5 5 2 3 5 3 1 3 2 3 4 4 5 9 11 11 8 7 8 8 8 8 7 7 4 2 6
9 9 10 12 16 18 18 18 17 17 24 20 8 6 9 6 4 4 5 4 4 5 6 5 5 6 5 2 2 6 1 2 5 4 3 4 3 6 6 5 8 7 6 7 3 2 3 4 5 3 1 4 5 4 5 4 3 2 2 3 5 4 7 4 2 0 3 2 4 2 4 5 3 7 8 6 8 8 6 8 9 8 6 5 4 2 4 5
8 9 9 8 11 15 18 20 18 20 23 14 6 9 5 1 3 3 2 3 8 10 9 5 2 5 6 4 4 7 2 2 4 3 4 3 2 6 6 5 8 11 8 6 3 3 5 1 4 1 1 3 1 4 2 2 4 5 3 6 3 2 4 4 2 3 3 3 5 1 5 5 2 5 5 3 5 8 8 7 7 7 3 5 6 7 7 6
9 9 9 9 9 11 16 18 17 20 18 7 7 9 2 1 3 1 1 3 8 9 6 5 3 4 6 5 5 7 5 4 5 4 4 3 4 7 9 5 6 13 14 6 2 3 5 2 4 1 2 3 3 4 1 3 3 5 4 4 4 2 1 2 2 2 1 3 5 4 4 4 5 6 2 0 7 7 6 5 7 10 4 8 10 10 10 9
12 9 8 11 11 10 13 15 14 16 11 5 9 8 1 2 2 2 3 2 4 6 4 5 3 2 6 7 6 7 7 7 8 6 4 4 4 6 11 8 5 12 17 10 4 2 4 3 3 1 1 1 3 2 5 1 3 3 2 3 3 2 4 3 3 3 3 3 3 4 4 3 6 7 6 7 9 8 5 2 3 5 3 7 10 11 12 12
12 7 5 12 15 13 12 13 12 10 6 4 6 3 1 1 1 2 3 2 2 2 3 4 3 4 5 5 4 6 6 5 8 7 4 6 5 4 9 10 5 8 15 11 5 2 3 3 4 2 2 1 2 4 7 8 5 3 4 4 2 1 2 2 1 2 4 4 3 3 5 6 5 4 8 10 9 7 7 5 4 6 5 7 10 11 13 15
12 5 4 12 16 16 16 13 8 5 2 2 1 1 1 0 0 2 2 3 2 2 2 3 4 5 6 5 4 5 5 4 7 6 3 6 6 4 8 12 8 7 8 6 4 4 2 3 4 2 1 3 5 5 6 10 8 7 7 8 7 5 4 3 3 2 2 3 4 3 5 8 5 5 6 8 7 6 9 8 4 4 8 11 14 14 15 15
11 3 4 12 16 19 18 9 3 3 1 2 1 2 2 0 0 2 2 2 2 2 3 2 2 3 4 5 5 5 6 5 5 6 4 6 8 4 7 14 16 15 11 5 6 6 4 4 5 3 4 6 7 5 4 6 3 1 3 5 6 6 6 6 6 4 1 2 3 4 3 7 3 4 5 6 6 6 8 6 4 10 13 15 16 15 14 15
9 4 6 15 20 22 16 4 2 4 2 3 2 1 2 1 0 2 2 2 1 2 2 1 0 1 2 2 4 6 7 5 6 7 5 4 6 5 5 11 16 16 11 5 4 4 3 4 4 1 3 4 5 5 2 0 0 1 2 2 4 4 4 5 5 4 3 4 3 3 5 6 1 1 1 5 8 9 7 6 10 13 14 14 14 13 13 14
7 5 6 14 21 22 13 2 3 4 2 4 5 3 4 3 3 3 3 3 3 2 3 1 0 1 1 2 4 5 5 4 5 7 4 2 5 5 4 8 13 11 8 7 8 9 6 2 4 3 1 3 4 4 2 1 2 3 3 3 5 5 5 4 2 3 2 7 7 5 7 6 3 2 3 6 7 8 8 8 10 12 12 11 11 11 11 13
5 4 4 10 19 20 10 2 3 4 4 6 6 6 5 3 6 8 5 4 5 4 3 2 2 3 2 3 4 2 1 2 3 4 2 2 2 1 1 6 13 13 8 9 14 15 9 4 5 6 6 7 6 6 5 4 2 2 3 6 8 8 9 6 3 4 5 7 7 6 9 6 1 1 3 4 5 5 5 5 7 8 7 9 11 14 18 21
2 2 3 5 12 15 10 6 6 5 5 7 4 5 9 5 4 9 8 4 5 5 3 1 3 4 2 2 4 2 1 2 1 2 2 2 2 2 3 0 8 11 7 8 16 14 5 2 7 10 11 12 10 8 6 7 7 6 7 9 9 9 11 8 4 5 9 6 4 8 12 9 6 4 3 2 3 4 1 1 4 3 9 14 19 21 23 24
1 1 3 3 4 7 7 8 8 5 5 8 4 4 10 9 2 5 8 6 7 9 3 0 3 4 3 4 3 3 3 1 1 2 2 3 2 3 2 3 3 6 4 6 12 10 4 3 9 11 13 11 7 7 7 9 12 13 11 11 11 11 11 10 9 11 10 4 6 13 11 11 15 9 7 9 4 4 5 5 3 9 13 16 22 24 23 22
3 2 3 4 2 3 4 8 11 7 5 8 5 3 8 10 6 5 7 4 5 9 6 1 5 7 6 7 4 3 5 3 1 3 3 3 2 1 2 2 2 1 3 4 5 5 4 5 6 8 10 7 2 4 8 11 11 11 13 14 14 14 14 15 17 17 12 8 14 17 11 13 20 10 9 11 7 6 9 10 10 15 15 15 18 20 21 21
6 4 4 4 2 1 1 6 12 8 5 7 6 5 8 12 11 8 6 3 2 6 8 5 8 10 8 7 6 4 6 5 5 6 4 3 3 2 1 1 1 1 3 3 1 2 4 4 2 4 6 5 3 3 6 9 8 7 10 12 14 16 18 20 21 19 14 13 17 13 7 12 16 5 8 12 10 10 14 13 14 15 13 12 13 15 18 19
8 6 4 3 3 2 2 5 11 8 5 6 5 5 7 11 14 10 7 8 6 5 8 10 9 9 9 8 8 7 7 7 6 5 6 5 3 3 3 3 2 0 2 3 1 1 2 3 1 3 3 4 4 4 5 6 7 5 6 8 10 13 15 16 15 11 8 11 15 10 6 12 9 6 9 14 12 13 14 14 16 13 9 10 13 14 15 17
12 10 7 2 1 2 1 2 6 5 5 6 6 6 7 10 13 9 6 11 12 8 9 13 10 6 7 8 8 9 10 9 9 8 9 9 8 6 5 4 4 3 1 1 1 2 2 2 2 3 3 4 4 5 4 4 3 1 7 10 10 10 9 9 8 7 8 11 13 9 10 13 6 5 7 8 7 10 15 13 11 8 7 12 14 14 14 14
17 13 10 3 1 1 2 2 4 5 6 9 10 8 7 7 8 9 5 9 15 16 17 17 11 6 5 7 11 16 14 10 11 13 15 19 16 11 10 9 5 5 3 1 2 1 3 4 2 2 4 3 3 6 6 5 2 5 11 12 10 8 6 5 5 7 10 10 8 8 11 11 3 2 6 5 5 9 13 6 5 4 8 12 12 12 12 11
Wind_Direction
183 180 180 183 181 175 173 175 177 177 177 177 176 175 177 177 178 180 180 180 180 182 186 189 189 189 189 192 197 198 191 183 183 188 191 188 184 181 186 192 188 181 177 176 172 169 169 164 171 173 167 161 159 171 169 166 166 151 112 98 161 186 203 188 181 199 178 167 184 184 177 163 153 159 144 140 153 150 154 171 168 170 159 157 164 154 161 167
186 182 181 183 184 180 175 176 178 179 179 178 178 178 179 180 181 182 183 184 184 185 187 187 187 189 188 188 194 198 195 186 186 190 188 185 184 181 185 192 189 179 175 174 171 167 164 163 171 171 167 159 149 164 171 180 168 140 107 111 202 207 201 207 190 201 203 173 175 177 182 179 176 168 153 145 160 151 145 156 166 176 169 162 163 161 167 171
187 185 183 183 186 184 178 177 180 181 180 179 182 182 181 182 185 185 186 186 186 187 187 187 187 189 187 187 190 194 194 190 193 193 185 181 184 182 180 187 184 177 177 176 172 168 164 163 168 168 168 160 149 161 164 174 180 163 107 121 230 213 194 298 155 199 237 189 167 171 184 187 189 176 170 172 172 167 175 177 175 185 184 176 171 171 174 176
189 188 186 185 187 187 182 179 181 183 181 181 184 186 185 185 187 187 188 188 186 186 186 187 187 187 188 185 185 190 187 189 202 193 184 182 185 187 182 184 182 177 181 180 176 174 166 162 172 173 171 168 157 166 173 176 187 173 124 164 215 186 161 327 58 13 222 180 168 169 174 195 205 185 184 168 151 228 219 203 208 211 199 184 178 180 181 183
192 191 189 188 188 188 186 181 181 184 183 183 185 187 188 188 189 188 188 188 186 184 185 186 187 188 187 184 182 182 167 160 207 192 185 189 189 188 183 183 184 181 183 185 184 183 178 171 180 181 176 171 149 156 194 182 164 123 125 181 165 156 154 179 123 92 177 172 167 162 163 196 194 185 195 177 165 227 225 219 226 227 214 199 190 187 187 189
195 193 190 189 190 190 190 185 182 184 185 184 185 188 190 191 190 188 188 188 186 183 183 185 187 188 186 186 183 179 173 149 194 187 186 190 188 183 181 184 185 186 190 191 192 192 194 185 176 182 176 145 163 166 184 181 167 119 249 170 142 165 163 162 160 150 179 174 161 164 177 183 169 188 209 200 209 227 230 231 231 232 229 217 204 195 193 195
197 194 192 191 193 193 192 189 184 183 185 185 186 188 191 192 190 190 189 188 187 185 183 184 186 189 188 187 184 188 200 198 162 182 185 182 183 184 183 185 185 191 196 194 196 199 199 186 170 174 161 105 178 191 167 171 167 126 171 197 130 155 149 154 165 152 173 176 166 168 178 177 173 194 216 216 227 231 227 213 212 226 228 220 211 205 205 203
198 196 195 193 194 196 195 192 187 184 184 186 186 188 191 191 190 190 191 190 189 186 184 184 185 189 188 189 188 194 213 211 154 180 182 177 182 184 184 186 186 192 193 192 196 196 195 186 172 171 162 165 185 184 157 144 129 119 150 179 140 131 148 148 166 157 156 167 163 167 174 184 192 210 247 235 231 223 218 207 188 205 218 220 218 216 213 209
199 199 197 196 195 197 197 194 189 186 184 186 186 189 192 191 190 190 192 193 189 186 186 184 185 188 188 191 191 193 211 210 195 179 179 180 183 182 182 183 186 190 189 188 188 189 192 185 182 186 194 213 179 164 159 144 236 183 148 160 154 140 150 142 165 164 157 168 164 178 196 200 204 258 269 249 239 226 221 217 208 205 212 215 217 220 218 213
201 202 200 198 197 196 197 195 193 189 185 186 186 190 194 193 192 191 192 194 190 188 186 185 186 187 188 188 186 192 207 204 202 184 180 184 182 177 175 175 183 188 186 187 186 185 185 178 184 189 186 181 159 143 159 154 183 164 137 136 136 137 152 145 160 159 159 175 180 193 227 270 201 154 261 253 243 225 220 217 219 223 223 215 213 217 217 216
202 203 203 199 197 195 195 196 196 192 187 186 186 189 195 197 195 192 193 195 193 189 186 187 186 187 190 189 190 196 198 199 199 189 185 185 178 172 172 173 177 180 185 190 188 184 180 171 166 178 185 155 145 111 120 137 143 145 131 107 63 76 155 181 156 159 161 157 185 181 190 293 95 151 249 252 246 226 220 218 221 224 226 223 218 216 215 217
203 203 203 200 196 195 195 195 195 194 190 187 185 187 192 197 197 194 194 195 194 191 188 187 185 187 188 193 205 204 187 194 192 185 185 181 175 172 174 177 176 176 187 194 191 187 181 175 165 177 169 149 142 98 115 136 136 135 125 100 357 11 5 232 174 172 177 151 181 151 37 286 222 225 244 249 246 243 224 219 222 223 227 227 225 223 221 222
203 201 201 198 196 196 196 194 194 195 192 188 187 185 189 195 195 193 194 196 195 191 190 188 185 187 186 194 214 207 199 197 185 181 180 177 174 175 177 180 182 181 186 191 192 189 183 181 177 171 152 145 137 119 127 128 130 131 104 101 31 13 343 251 177 178 179 161 183 145 259 271 250 237 239 247 260 252 227 218 220 223 229 230 229 229 230 231
202 200 198 196 196 197 197 194 194 196 193 190 187 185 189 193 193 191 192 194 194 192 190 188 183 185 189 197 216 208 209 202 181 180 177 176 174 177 182 185 187 187 185 184 185 186 179 170 167 155 139 140 131 121 106 73 107 120 78 68 66 92 282 289 163 161 157 194 196 132 179 258 275 263 254 259 256 241 227 221 219 224 228 231 233 234 238 240
205 199 195 195 196 197 197 195 195 196 194 190 187 185 188 191 191 189 190 191 192 192 190 186 182 182 190 205 216 206 207 199 182 180 178 177 177 180 186 190 192 191 189 182 175 173 165 159 159 139 119 129 128 114 59 14 31 45 103 313 350 148 261 308 226 172 162 201 183 118 191 262 280 287 313 292 240 218 226 229 222 225 227 231 236 239 245 248
211 200 195 195 195 196 197 195 195 196 193 189 185 184 185 188 187 185 186 188 188 190 187 184 182 178 180 202 206 199 197 192 181 180 181 178 179 184 185 186 187 187 186 177 167 165 163 159 142 123 118 128 121 99 60 33 352 0 102 200 275 158 262 313 265 211 181 164 173 132 210 265 284 262 37 37 202 206 226 235 229 230 232 235 240 245 249 252
216 203 196 194 194 196 196 195 195 194 192 189 184 182 182 181 179 178 179 180 181 181 181 180 178 179 199 205 195 192 190 187 182 183 182 179 179 181 177 173 171 174 170 160 160 160 161 154 134 131 109 101 103 94 87 36 273 292 44 167 226 177 186 278 279 273 129 138 243 124 205 249 267 266 275 308 242 227 237 241 238 235 238 243 247 251 254 256
216 204 195 192 194 195 194 194 193 192 190 186 181 176 174 171 170 171 171 170 167 162 171 176 166 172 236 208 188 189 188 183 181 182 181 179 176 173 169 162 160 160 151 146 154 152 149 134 122 126 38 61 119 105 121 208 195 190 186 164 228 201 195 236 241 260 52 96 231 176 238 257 264 276 275 270 268 266 260 257 256 253 253 255 255 257 259 259
213 201 192 189 191 191 190 191 189 187 184 179 174 168 162 157 155 161 166 166 160 151 172 181 170 162 255 193 183 184 184 180 180 180 177 176 171 168 162 152 155 152 142 135 142 142 129 98 92 115 145 170 187 156 166 199 173 169 174 148 160 182 227 242 243 261 171 126 244 224 231 258 265 276 274 270 271 269 265 265 264 263 262 261 260 260 260 259
209 196 187 184 186 186 185 188 187 182 178 175 170 161 153 148 137 145 168 168 167 158 281 186 182 197 17 173 178 175 172 174 178 177 174 174 168 162 154 148 147 138 134 142 150 134 106 115 156 187 195 191 193 177 156 155 140 136 126 112 146 168 232 252 261 288 148 151 257 243 240 262 264 267 268 270 276 271 259 259 259 260 261 260 260 261 260 259
203 191 183 179 179 182 183 186 185 179 176 174 170 164 162 161 146 159 172 173 181 172 11 182 185 209 328 169 175 169 163 167 177 178 174 173 167 159 157 150 133 113 132 135 122 85 83 141 208 219 205 189 183 167 124 104 91 94 119 121 128 170 228 252 255 292 18 143 269 324 308 271 258 262 266 266 269 259 249 245 249 254 256 258 259 260 261 260
197 185 179 176 176 180 182 182 182 178 175 175 174 172 177 176 172 176 169 169 193 184 112 177 185 205 184 170 173 166 160 157 175 182 175 171 169 168 167 147 119 136 150 104 97 56 57 191 234 231 197 140 112 129 112 100 88 81 111 123 140 211 247 292 305 314 11 114 272 343 333 279 263 256 260 256 246 251 253 247 250 256 258 260 261 262 263 264
189 179 175 174 175 177 179 180 180 178 177 176 176 178 183 180 179 176 168 146 186 192 189 180 190 199 165 164 174 171 165 156 172 183 177 174 175 173 164 144 118 136 127 125 129 115 122 242 243 212 155 115 90 118 114 93 81 88 109 128 206 250 189 274 300 313 355 58 271 324 312 283 282 273 266 261 249 256 263 258 256 257 257 261 262 264 266 266
179 174 173 173 173 174 175 177 179 177 178 177 177 183 185 182 179 170 164 98 151 192 199 189 197 200 179 164 177 179 174 169 175 181 179 178 175 169 167 151 122 133 153 153 142 146 202 252 204 113 104 116 113 124 129 124 86 34 131 143 185 214 169 195 293 324 353 14 12 0 324 291 314 333 292 283 262 259 264 260 258 256 255 259 261 262 261 261
172 170 171 172 172 172 173 176 177 177 178 174 176 186 184 183 179 168 158 65 75 190 196 195 202 205 195 178 180 180 173 175 179 180 181 181 173 162 168 156 136 161 178 145 130 155 229 260 140 113 67 91 115 137 165 151 133 310 220 171 170 167 157 173 0 33 32 351 336 28 3 291 310 317 276 297 334 293 280 270 265 264 257 251 251 256 258 259
169 170 170 171 171 172 173 175 175 176 178 175 174 177 179 180 174 167 150 48 309 205 175 188 194 197 196 187 175 164 161 194 184 181 181 181 178 165 157 154 130 171 170 142 126 168 221 39 105 126 108 90 98 132 188 143 117 237 232 168 150 131 122 129 88 62 83 259 303 58 102 268 296 284 258 284 335 307 293 281 270 269 265 255 252 257 261 265
168 171 171 171 171 171 169 173 177 178 177 174 166 158 168 172 163 163 138 32 272 186 151 180 184 182 189 181 169 157 151 180 166 179 181 178 182 173 164 176 121 155 162 133 132 219 168 97 69 92 98 94 109 161 201 133 116 228 226 134 128 120 127 138 108 97 209 242 323 16 112 234 288 268 242 261 320 298 290 284 280 280 278 271 266 266 267 268
173 170 172 173 170 170 170 174 178 177 177 174 159 148 154 156 154 154 122 44 208 152 144 178 171 174 179 171 172 163 137 152 144 180 180 176 183 173 167 195 162 145 140 127 174 254 144 152 161 124 96 117 171 216 202 125 102 241 195 126 130 130 132 123 101 102 4 10 316 311 132 200 274 269 279 355 309 291 287 283 288 301 305 292 277 275 272 264
182 170 173 172 163 166 173 176 175 175 179 175 163 148 141 144 145 131 93 161 170 117 141 165 161 171 167 160 172 161 136 148 138 169 173 174 183 170 140 189 156 112 59 93 163 232 52 173 189 139 123 183 200 245 197 131 97 171 135 97 76 73 83 80 92 105 39 6 256 243 188 195 270 279 307 352 278 259 276 284 291 315 341 40 88 93 92 83
182 173 175 168 158 164 174 174 174 176 178 177 175 164 142 139 138 120 171 211 158 98 128 156 166 169 156 145 156 155 139 132 122 146 158 169 174 159 126 156 136 98 37 36 102 240 332 75 147 114 141 175 147 77 71 116 128 128 101 68 52 31 34 42 54 84 60 290 254 237 211 171 268 281 268 218 225 225 260 297 304 342 43 80 87 89 89 70
177 175 174 166 164 171 174 171 174 177 175 176 180 173 151 128 109 142 196 202 121 108 109 146 174 158 156 154 150 156 107 48 137 145 147 152 158 147 127 140 105 82 42 31 56 324 355 63 19 10 128 129 105 63 39 54 101 107 83 79 73 355 6 18 1 42 141 256 262 255 212 147 218 263 256 235 252 239 226 258 280 350 59 81 82 80 68 35
176 174 165 165 174 177 174 172 172 173 172 171 171 167 150 102 171 200 204 159 145 181 166 172 196 165 162 150 136 154 110 86 165 153 147 146 157 174 161 169 152 111 182 184 123 331 23 56 293 337 171 152 110 73 36 16 42 79 91 99 90 344 5 346 299 281 223 244 269 270 190 183 225 248 259 262 264 242 222 216 219 49 71 68 59 64 36 9
176 176 171 178 188 181 174 173 170 170 168 164 162 156 124 110 205 208 204 205 199 177 152 146 137 146 151 142 149 161 106 130 187 162 151 142 158 204 232 201 153 128 185 181 126 130 253 309 303 76 258 209 146 121 133 237 114 131 137 133 132 132 125 261 260 275 262 256 289 285 245 261 272 266 248 250 255 230 224 236 290 331 348 354 332 163 11 358
172 174 181 196 199 189 184 175 169 169 165 161 157 143 125 187 208 185 176 212 199 77 107 122 115 130 147 149 181 174 99 125 181 143 137 137 149 204 234 230 172 102 110 154 149 166 183 276 228 170 195 192 178 170 159 150 157 179 154 136 151 159 163 213 216 209 245 271 300 290 249 207 224 296 259 256 274 273 248 264 285 281 265 271 235 219 337 2
172 164 175 195 199 195 193 182 172 168 165 162 152 146 182 202 218 174 173 197 151 66 56 103 119 135 160 100 226 201 150 158 178 135 153 171 172 193 195 203 196 134 126 162 195 168 165 248 248 260 156 166 174 195 143 115 120 230 114 111 177 188 150 141 191 180 180 292 299 255 232 215 212 277 278 274 283 274 249 259 260 251 246 245 242 246 2 31
178 169 169 185 193 193 192 186 179 172 170 163 150 188 198 205 204 180 172 158 146 131 106 95 106 139 173 161 208 225 212 117 158 145 183 197 197 198 192 202 195 175 159 160 173 163 148 265 283 358 18 169 163 173 150 134 169 176 136 183 218 176 119 110 240 3 78 246 268 206 246 293 329 287 285 290 291 293 285 272 265 257 239 219 217 117 77 43
185 179 178 181 182 183 184 184 181 178 177 171 178 199 201 179 174 180 186 136 139 140 130 138 161 152 170 172 191 206 190 112 155 164 192 200 225 198 192 225 201 186 187 163 170 200 154 233 296 87 186 263 86 126 111 63 129 131 182 209 198 90 84 107 205 349 40 250 274 235 236 281 303 273 315 2 257 270 281 283 296 308 349 92 98 85 67 39
198 188 190 194 189 184 181 183 185 179 173 173 207 210 177 111 182 140 89 134 136 138 140 164 168 147 171 179 187 189 174 164 175 179 179 191 242 196 172 205 204 194 204 183 137 214 154 167 302 25 173 282 12 114 131 358 85 135 182 174 120 125 205 108 156 201 164 240 277 287 262 252 213 227 311 346 207 213 243 291 316 305 328 67 72 69 59 52
202 195 196 199 201 200 183 179 182 174 164 179 208 215 170 126 202 139 114 76 115 136 160 181 165 126 173 174 166 176 182 179 173 180 184 186 235 204 174 185 196 196 202 186 158 202 145 167 259 308 219 313 23 151 195 218 53 71 100 116 100 140 168 163 162 165 171 207 260 304 310 265 224 205 177 193 208 191 188 281 294 241 188 70 59 64 60 52
191 187 210 202 198 206 191 175 174 167 167 202 200 212 342 108 212 184 134 63 66 121 171 190 167 144 168 172 158 170 183 175 169 183 203 188 209 231 193 188 178 185 190 179 169 169 121 171 217 300 333 172 189 213 188 172 159 143 158 173 179 103 114 166 179 128 141 171 205 269 286 269 247 200 169 184 214 203 156 139 160 169 138 69 57 62 51 37
176 169 222 201 196 201 189 173 169 157 171 238 179 178 251 209 114 160 131 108 85 67 109 158 162 154 154 161 175 177 164 159 174 185 208 200 202 232 209 194 170 146 156 164 187 190 160 168 168 159 213 201 228 242 194 186 182 169 181 193 184 161 129 155 230 255 134 165 182 192 269 269 235 196 185 185 210 203 161 157 162 110 78 61 59 54 38 27
170 170 198 188 195 200 187 167 136 126 164 240 179 152 194 316 73 152 131 122 105 58 74 103 137 154 154 163 172 165 153 159 183 186 202 211 203 208 209 196 175 153 147 168 199 185 129 109 132 169 212 216 241 260 222 217 224 159 198 194 176 169 148 157 208 235 191 216 175 133 273 277 224 187 204 183 170 161 157 157 89 65 60 56 53 42 27 16
174 182 176 180 189 189 181 166 126 144 191 224 189 182 192 187 222 178 158 152 139 93 88 76 92 130 150 157 154 162 167 173 187 193 206 217 211 220 210 189 174 159 153 171 189 167 124 109 138 202 310 306 306 322 337 301 316 255 253 167 156 183 160 154 185 176 174 214 169 129 257 269 318 307 234 139 130 119 105 81 60 54 52 50 43 31 18 3
177 173 170 182 183 176 170 180 176 172 193 171 172 221 235 243 239 200 169 161 160 119 119 176 275 109 136 89 115 163 181 183 192 199 201 193 209 222 212 191 180 167 167 184 176 172 181 171 133 133 339 330 329 321 298 256 186 196 227 191 173 164 119 100 136 134 209 222 178 178 241 249 295 318 66 86 101 97 70 53 53 52 50 44 30 16 358 338
168 164 183 192 184 177 181 213 159 162 178 162 167 197 203 239 247 227 206 154 160 154 143 173 118 106 126 81 76 94 100 138 181 185 186 210 232 257 252 208 193 186 196 196 175 168 177 190 154 159 198 210 212 221 214 198 175 189 218 200 190 176 161 164 165 155 224 223 174 194 236 240 303 51 85 52 57 65 35 37 62 58 33 3 346 334 322 314
163 182 194 197 192 191 206 218 182 165 178 175 172 183 182 194 248 229 216 184 175 175 150 149 127 106 103 91 89 106 42 40 124 133 143 208 250 327 5 230 187 187 195 183 171 161 142 204 190 190 208 211 212 217 189 144 157 202 215 191 193 197 183 175 153 183 217 215 178 226 238 242 248 197 182 236 121 108 296 117 100 6 326 323 321 315 309 306
165 235 180 170 204 210 215 211 195 181 175 178 174 171 185 191 199 208 209 205 193 187 172 77 163 163 180 162 137 168 178 96 79 142 169 190 224 302 346 43 117 163 155 157 169 156 111 211 205 203 217 220 210 205 183 162 179 202 203 188 193 196 184 185 201 213 212 187 232 240 224 237 249 217 201 243 205 151 219 208 226 294 302 307 308 307 304 305
200 299 209 180 176 203 214 201 191 189 177 179 184 170 180 190 189 185 198 205 193 185 183 228 211 206 192 165 154 172 166 148 170 191 187 178 178 348 357 18 25 99 126 136 161 143 137 205 206 199 219 226 183 166 181 181 190 202 201 195 196 193 188 196 213 220 202 183 236 240 194 220 249 222 189 228 206 180 235 254 275 287 290 293 298 302 304 308
216 266 258 234 224 287 288 177 174 184 189 181 190 186 179 191 199 194 176 154 181 193 188 204 219 218 209 175 167 183 176 176 206 206 184 167 165 132 128 232 301 18 96 101 95 109 154 201 197 170 202 212 174 153 168 175 184 206 209 202 199 199 199 202 213 222 211 208 239 245 193 227 248 199 178 224 231 246 263 274 278 281 291 300 301 300 303 309
212 233 249 267 260 295 355 151 166 184 201 193 206 208 195 197 200 197 175 168 180 187 191 208 213 204 205 198 192 205 203 196 212 203 163 157 188 180 181 203 194 152 56 95 106 12 147 185 109 114 173 222 200 154 124 146 170 199 228 224 211 209 212 216 222 224 211 227 246 251 254 258 243 167 205 237 245 260 267 271 279 293 317 313 304 303 307 315
206 218 230 291 347 236 247 153 167 181 193 198 207 204 208 212 201 190 187 195 194 176 181 204 206 182 196 206 203 217 219 209 217 214 185 191 209 195 197 207 144 121 17 85 126 30 97 142 60 87 171 228 203 164 133 97 97 216 252 240 215 205 212 220 225 212 198 222 242 243 252 260 234 160 227 232 206 244 266 277 298 331 337 313 316 328 332 333
205 212 221 225 21 224 210 136 162 190 204 209 210 202 203 211 185 168 184 213 205 197 196 198 190 172 192 203 209 221 221 207 210 219 215 217 217 199 203 226 199 156 164 91 69 37 112 129 107 125 179 211 163 146 132 95 76 256 249 230 203 193 193 194 220 224 207 208 226 231 241 257 256 149 253 250 193 244 279 317 33 3 316 320 344 3 5 3
Height
1476 1477 1479 1481 1483 1484 1485 1488 1490 1492 1494 1495 1497 1498 1500 1502 1504 1506 1507 1508 1509 1510 1511 1512 1513 1514 1516 1517 1518 1519 1520 1520 1520 1522 1523 1524 1525 1526 1526 1527 1528 1529 1529 1530 1532 1533 1533 1534 1535 1535 1536 1537 1537 1537 1538 1539 1539 1540 1543 1547 1550 1553 1551 1547 1549 1549 1546 1545 1546 1547 1548 1550 1551 1551 1551 1552 1553 1553 1554 1555 1555 1555 1555 1556 1556 1556 1557 1557
1475 1476 1478 1480 1482 1483 1484 1486 1489 1491 1493 1494 1496 1497 1499 1501 1503 1505 1506 1507 1508 1509 1510 1511 1513 1514 1515 1517 1518 1519 1519 1519 1520 1521 1522 1524 1524 1525 1526 1527 1528 1528 1529 1530 1531 1532 1533 1534 1534 1535 1536 1536 1536 1537 1538 1539 1539 1540 1545 1547 1549 1550 1547 1545 1546 1545 1545 1544 1544 1546 1548 1549 1550 1550 1551 1552 1553 1553 1554 1554 1555 1555 1555 1555 1556 1556 1557 1557
1474 1476 1477 1479 1481 1483 1483 1485 1488 1490 1492 1493 1495 1497 1499 1501 1502 1503 1505 1506 1507 1508 1509 1510 1512 1513 1515 1516 1518 1519 1519 1519 1520 1521 1522 1523 1524 1525 1526 1526 1527 1528 1529 1530 1531 1532 1534 1534 1534 1534 1535 1536 1536 1537 1538 1538 1539 1540 1543 1546 1546 1546 1545 1545 1544 1544 1544 1543 1544 1546 1547 1548 1549 1549 1550 1551 1552 1553 1553 1553 1553 1554 1554 1554 1555 1556 1556 1557
1474 1475 1477 1478 1480 1482 1483 1484 1487 1489 1491 1493 1495 1497 1499 1500 1501 1502 1503 1505 1506 1507 1508 1510 1511 1512 1514 1516 1517 1518 1519 1519 1519 1520 1521 1523 1524 1524 1525 1526 1527 1528 1529 1529 1531 1532 1533 1534 1534 1534 1535 1535 1536 1537 1537 1538 1539 1540 1541 1544 1544 1544 1545 1544 1543 1543 1543 1543 1544 1545 1547 1548 1548 1549 1550 1550 1552 1553 1551 1550 1551 1551 1552 1553 1554 1555 1556 1556
1473 1475 1477 1478 1480 1482 1483 1484 1486 1488 1490 1492 1495 1497 1498 1499 1501 1501 1502 1504 1505 1506 1508 1509 1511 1512 1514 1515 1517 1518 1519 1520 1519 1519 1521 1522 1523 1523 1524 1525 1526 1527 1528 1529 1530 1532 1533 1534 1534 1534 1534 1535 1535 1536 1537 1537 1538 1540 1542 1542 1542 1543 1544 1544 1543 1543 1543 1544 1545 1546 1547 1547 1547 1548 1548 1549 1550 1550 1548 1548 1549 1549 1550 1551 1552 1553 1554 1555
1472 1474 1476 1477 1479 1481 1482 1483 1485 1487 1490 1492 1494 1496 1497 1499 1500 1500 1501 1503 1504 1506 1507 1509 1511 1512 1514 1515 1517 1518 1519 1519 1517 1518 1520 1521 1522 1522 1523 1524 1526 1527 1528 1529 1530 1531 1532 1533 1533 1534 1534 1534 1535 1536 1536 1537 1538 1540 1542 1542 1541 1543 1543 1544 1544 1544 1543 1544 1545 1546 1546 1546 1547 1547 1548 1548 1547 1547 1547 1548 1548 1549 1550 1550 1551 1552 1553 1554
1471 1473 1475 1477 1478 1480 1482 1483 1485 1487 1489 1491 1493 1495 1497 1498 1499 1500 1501 1502 1504 1506 1507 1509 1511 1512 1514 1515 1517 1518 1518 1517 1516 1518 1519 1520 1521 1522 1523 1524 1525 1526 1527 1528 1529 1530 1532 1532 1533 1533 1534 1534 1535 1535 1535 1537 1537 1539 1542 1542 1541 1542 1543 1544 1544 1544 1544 1544 1545 1545 1546 1546 1546 1547 1547 1546 1546 1547 1547 1547 1547 1548 1549 1550 1551 1551 1552 1552
1470 1472 1474 1476 1478 1479 1481 1483 1485 1486 1488 1490 1492 1494 1496 1497 1499 1500 1501 1502 1504 1505 1507 1509 1510 1512 1514 1515 1516 1517 1517 1516 1516 1517 1518 1519 1520 1521 1522 1523 1525 1526 1527 1527 1529 1530 1531 1532 1532 1532 1533 1534 1533 1534 1535 1537 1538 1539 1541 1541 1541 1542 1543 1543 1544 1544 1544 1544 1545 1545 1545 1546 1546 1547 1546 1544 1545 1546 1547 1547 1547 1547 1548 1549 1549 1550 1551 1552
1469 1471 1473 1475 1477 1479 1481 1483 1484 1486 1488 1490 1491 1493 1495 1497 1498 1499 1501 1502 1504 1505 1507 1508 1510 1512 1513 1514 1515 1516 1515 1515 1516 1516 1517 1518 1519 1520 1522 1523 1524 1525 1526 1527 1528 1529 1530 1531 1531 1531 1532 1532 1532 1533 1534 1537 1539 1538 1539 1541 1541 1542 1543 1543 1544 1544 1544 1545 1545 1545 1546 1546 1546 1547 1544 1542 1544 1545 1545 1546 1546 1547 1547 1547 1548 1549 1550 1550
1468 1470 1471 1474 1476 1478 1480 1482 1484 1485 1487 1489 1491 1493 1495 1496 1498 1499 1500 1502 1503 1505 1506 1508 1509 1511 1512 1514 1515 1515 1514 1514 1515 1516 1517 1518 1519 1520 1521 1523 1524 1525 1526 1527 1528 1529 1530 1530 1531 1531 1531 1532 1532 1534 1535 1536 1537 1537 1539 1540 1542 1543 1543 1544 1544 1544 1544 1545 1545 1545 1546 1546 1546 1547 1543 1539 1542 1543 1544 1545 1545 1546 1546 1547 1547 1548 1549 1549
1467 1469 1470 1473 1475 1477 1479 1481 1483 1485 1486 1488 1490 1492 1494 1496 1497 1498 1499 1501 1503 1504 1505 1507 1509 1510 1512 1513 1513 1513 1513 1514 1515 1515 1517 1517 1519 1520 1521 1523 1524 1525 1526 1527 1528 1528 1529 1530 1530 1530 1531 1532 1532 1534 1535 1535 1536 1537 1538 1541 1543 1543 1543 1544 1544 1544 1544 1545 1545 1546 1546 1546 1547 1547 1541 1539 1541 1542 1542 1543 1544 1544 1545 1546 1546 1547 1547 1548
1466 1468 1470 1472 1474 1476 1478 1480 1482 1484 1485 1487 1488 1490 1493 1495 1496 1497 1499 1500 1502 1503 1505 1506 1508 1509 1511 1512 1512 1512 1513 1514 1514 1515 1516 1517 1518 1519 1521 1523 1524 1525 1526 1527 1527 1528 1529 1530 1530 1530 1530 1531 1533 1535 1535 1536 1536 1537 1538 1541 1544 1544 1544 1544 1544 1545 1544 1545 1545 1546 1548 1547 1546 1542 1537 1539 1541 1541 1542 1542 1542 1543 1544 1545 1545 1546 1546 1546
1465 1466 1469 1471 1473 1475 1477 1479 1481 1483 1485 1486 1487 1489 1491 1493 1495 1496 1498 1500 1501 1503 1504 1505 1507 1509 1510 1511 1511 1512 1513 1513 1513 1514 1515 1517 1518 1519 1521 1522 1524 1525 1526 1527 1527 1528 1529 1529 1529 1530 1530 1531 1533 1534 1535 1536 1537 1538 1540 1542 1545 1546 1545 1543 1544 1545 1544 1545 1545 1546 1549 1546 1542 1539 1536 1539 1540 1540 1541 1540 1541 1542 1542 1543 1544 1544 1544 1545
1464 1465 1467 1470 1472 1474 1476 1478 1480 1482 1484 1485 1486 1488 1490 1493 1494 1495 1497 1499 1501 1502 1503 1505 1506 1508 1509 1510 1510 1511 1512 1512 1513 1514 1515 1516 1518 1519 1521 1522 1524 1525 1526 1526 1527 1528 1528 1529 1529 1529 1530 1531 1532 1533 1536 1538 1538 1540 1542 1544 1549 1550 1546 1543 1544 1545 1545 1546 1544 1546 1550 1544 1538 1538 1537 1538 1539 1539 1539 1539 1540 1540 1541 1542 1542 1542 1542 1543
1463 1464 1466 1468 1470 1473 1475 1477 1479 1481 1483 1484 1486 1487 1490 1492 1493 1495 1496 1498 1500 1502 1503 1504 1506 1507 1509 1509 1509 1510 1511 1512 1512 1513 1515 1516 1518 1519 1521 1522 1523 1524 1525 1526 1526 1527 1528 1529 1529 1529 1531 1531 1532 1534 1538 1540 1541 1543 1545 1548 1554 1552 1546 1544 1544 1544 1544 1545 1544 1546 1549 1545 1539 1538 1537 1537 1536 1537 1538 1538 1539 1539 1540 1540 1540 1541 1540 1540
1462 1463 1465 1467 1469 1471 1474 1476 1478 1480 1482 1484 1485 1487 1489 1491 1492 1494 1496 1498 1500 1502 1503 1504 1505 1506 1507 1508 1508 1508 1509 1511 1512 1513 1515 1516 1518 1519 1521 1522 1523 1524 1524 1525 1526 1527 1528 1528 1529 1530 1531 1532 1533 1535 1540 1545 1545 1546 1546 1548 1552 1551 1549 1547 1544 1544 1544 1544 1544 1545 1547 1544 1540 1537 1536 1537 1537 1537 1538 1538 1538 1538 1538 1539 1539 1539 1538 1538
1461 1462 1463 1465 1468 1470 1473 1475 1477 1480 1482 1483 1484 1486 1488 1490 1492 1493 1495 1498 1500 1501 1503 1504 1505 1506 1506 1506 1507 1507 1508 1509 1511 1512 1514 1516 1518 1519 1520 1521 1522 1523 1524 1525 1526 1527 1527 1528 1529 1530 1531 1533 1535 1536 1543 1550 1549 1548 1548 1548 1550 1551 1551 1548 1544 1544 1544 1544 1545 1545 1546 1543 1539 1537 1536 1537 1538 1538 1538 1537 1537 1537 1537 1537 1537 1537 1536 1535
1459 1461 1462 1464 1467 1469 1472 1475 1477 1479 1481 1482 1484 1485 1487 1489 1491 1493 1495 1497 1499 1501 1503 1503 1505 1507 1506 1504 1504 1505 1506 1508 1510 1512 1514 1515 1517 1518 1520 1520 1521 1522 1523 1524 1526 1526 1527 1528 1529 1531 1533 1535 1536 1536 1541 1547 1545 1545 1546 1546 1549 1550 1550 1548 1545 1544 1544 1544 1545 1546 1547 1543 1538 1537 1536 1536 1537 1537 1537 1536 1536 1536 1535 1535 1535 1534 1533 1532
1457 1459 1461 1463 1466 1469 1471 1474 1476 1478 1480 1482 1483 1485 1487 1489 1491 1493 1494 1495 1497 1499 1501 1500 1501 1503 1501 1500 1502 1504 1505 1508 1509 1511 1513 1515 1517 1518 1519 1520 1521 1521 1522 1524 1525 1526 1527 1528 1531 1533 1535 1535 1535 1534 1535 1538 1537 1538 1542 1543 1544 1546 1547 1547 1545 1544 1545 1545 1545 1545 1545 1542 1538 1537 1536 1534 1535 1535 1535 1534 1533 1532 1532 1531 1531 1530 1530 1529
1456 1458 1460 1462 1465 1468 1470 1473 1475 1477 1479 1481 1482 1484 1486 1487 1490 1493 1494 1494 1495 1496 1497 1497 1497 1498 1497 1497 1500 1502 1504 1507 1509 1510 1512 1514 1516 1517 1519 1520 1520 1521 1522 1523 1525 1526 1526 1530 1532 1532 1532 1532 1533 1534 1534 1536 1537 1538 1541 1543 1544 1545 1544 1545 1545 1544 1544 1544 1543 1544 1544 1542 1539 1536 1534 1532 1532 1533 1533 1531 1529 1528 1527 1527 1527 1527 1526 1526
1455 1456 1458 1461 1464 1467 1469 1472 1474 1476 1477 1479 1481 1482 1482 1483 1485 1489 1491 1493 1494 1495 1495 1495 1497 1498 1497 1498 1499 1501 1503 1506 1508 1510 1512 1514 1515 1517 1518 1519 1520 1522 1524 1524 1525 1526 1527 1532 1532 1529 1530 1531 1532 1534 1535 1537 1538 1538 1541 1542 1545 1547 1545 1545 1545 1544 1545 1544 1543 1545 1543 1539 1536 1534 1531 1530 1530 1529 1527 1527 1525 1523 1523 1524 1524 1523 1523 1522
1453 1455 1457 1460 1462 1465 1468 1471 1473 1474 1476 1478 1479 1480 1481 1481 1482 1484 1487 1491 1493 1494 1495 1495 1497 1498 1498 1499 1500 1501 1503 1505 1508 1510 1511 1513 1514 1515 1517 1519 1520 1522 1524 1524 1526 1529 1532 1532 1529 1528 1531 1532 1534 1535 1535 1536 1538 1538 1541 1542 1543 1547 1547 1546 1545 1544 1545 1544 1542 1545 1542 1534 1532 1531 1527 1526 1526 1523 1522 1523 1522 1521 1521 1521 1520 1519 1519 1519
1452 1454 1456 1458 1461 1464 1467 1469 1472 1473 1475 1476 1478 1479 1480 1481 1483 1484 1486 1489 1492 1494 1495 1495 1496 1497 1498 1499 1501 1502 1502 1504 1506 1508 1510 1512 1513 1514 1516 1518 1520 1522 1524 1524 1526 1532 1534 1531 1527 1529 1531 1531 1534 1536 1535 1536 1538 1539 1541 1541 1543 1548 1548 1544 1544 1545 1546 1546 1544 1545 1541 1531 1527 1526 1522 1521 1521 1520 1520 1520 1519 1520 1518 1517 1516 1516 1516 1515
1450 1453 1456 1458 1461 1463 1466 1469 1470 1472 1474 1476 1478 1479 1480 1482 1483 1485 1486 1489 1492 1493 1494 1495 1496 1496 1497 1499 1500 1501 1502 1503 1504 1506 1509 1510 1512 1514 1515 1516 1519 1522 1524 1524 1525 1528 1530 1528 1527 1529 1530 1530 1533 1536 1535 1535 1540 1543 1541 1541 1542 1545 1546 1545 1546 1546 1546 1548 1547 1544 1538 1528 1524 1524 1519 1518 1520 1518 1517 1517 1516 1516 1515 1514 1513 1512 1512 1512
1450 1452 1455 1457 1460 1462 1465 1467 1469 1472 1473 1475 1478 1478 1480 1481 1483 1485 1486 1490 1493 1493 1494 1495 1495 1496 1496 1498 1499 1500 1502 1503 1504 1505 1507 1509 1511 1513 1514 1515 1518 1522 1525 1525 1526 1527 1527 1527 1527 1529 1530 1531 1532 1534 1535 1535 1539 1543 1541 1540 1540 1540 1543 1545 1545 1545 1546 1549 1548 1547 1544 1533 1525 1524 1520 1517 1519 1516 1515 1515 1513 1511 1511 1511 1510 1508 1509 1510
1450 1452 1454 1457 1459 1461 1465 1466 1468 1471 1472 1475 1477 1478 1480 1481 1483 1485 1486 1495 1496 1492 1493 1494 1494 1494 1494 1497 1498 1500 1503 1503 1503 1504 1506 1509 1510 1511 1513 1515 1516 1520 1524 1525 1526 1527 1527 1527 1527 1528 1530 1531 1532 1533 1535 1536 1540 1541 1540 1541 1541 1540 1542 1544 1543 1545 1549 1551 1551 1551 1551 1542 1528 1521 1520 1519 1519 1517 1514 1512 1508 1507 1507 1507 1507 1506 1507 1509
1450 1453 1454 1456 1458 1461 1464 1465 1468 1470 1471 1475 1476 1478 1480 1480 1484 1483 1488 1505 1501 1486 1489 1493 1491 1491 1492 1495 1496 1499 1502 1502 1502 1505 1505 1508 1510 1510 1513 1515 1516 1518 1520 1523 1527 1527 1526 1527 1529 1529 1530 1533 1533 1533 1535 1535 1537 1540 1540 1542 1542 1540 1542 1544 1544 1546 1551 1552 1552 1552 1552 1551 1537 1523 1521 1522 1519 1517 1512 1509 1505 1504 1504 1503 1504 1505 1505 1507
1451 1453 1454 1456 1459 1461 1463 1464 1467 1469 1471 1474 1475 1478 1479 1480 1485 1482 1491 1510 1498 1480 1484 1488 1488 1490 1491 1494 1495 1496 1498 1497 1500 1504 1505 1507 1509 1509 1511 1514 1514 1516 1518 1521 1526 1527 1525 1526 1527 1528 1530 1533 1532 1533 1535 1534 1535 1539 1542 1543 1543 1542 1544 1546 1545 1548 1555 1554 1552 1551 1552 1554 1541 1523 1523 1524 1518 1514 1510 1507 1505 1502 1502 1501 1501 1503 1504 1506
1451 1452 1454 1456 1459 1461 1463 1463 1466 1468 1470 1473 1475 1478 1479 1481 1483 1484 1496 1503 1485 1476 1482 1484 1487 1490 1490 1493 1495 1495 1496 1497 1499 1502 1504 1507 1508 1509 1511 1512 1513 1516 1518 1519 1522 1526 1527 1527 1526 1527 1528 1530 1532 1536 1536 1534 1535 1539 1543 1544 1545 1547 1548 1549 1549 1549 1555 1555 1550 1549 1549 1551 1539 1519 1519 1522 1514 1512 1509 1507 1506 1502 1501 1501 1501 1503 1505 1507
1450 1452 1454 1456 1457 1460 1462 1463 1466 1467 1470 1472 1475 1477 1479 1481 1483 1491 1505 1494 1475 1477 1482 1482 1485 1487 1488 1492 1495 1496 1496 1498 1498 1501 1505 1507 1508 1509 1510 1512 1513 1516 1519 1521 1524 1527 1528 1527 1527 1528 1528 1529 1532 1536 1537 1536 1536 1538 1542 1543 1545 1549 1549 1551 1554 1552 1554 1553 1549 1551 1549 1550 1544 1523 1514 1516 1510 1509 1510 1507 1507 1504 1502 1502 1503 1505 1506 1507
1450 1452 1454 1455 1457 1459 1460 1463 1465 1466 1469 1471 1474 1477 1479 1482 1485 1495 1500 1481 1470 1480 1483 1482 1485 1484 1486 1489 1493 1496 1497 1499 1499 1500 1504 1506 1508 1509 1510 1512 1514 1519 1523 1523 1526 1529 1528 1528 1529 1529 1529 1530 1531 1534 1537 1538 1538 1538 1540 1542 1545 1550 1552 1553 1557 1556 1556 1552 1550 1557 1556 1553 1549 1526 1511 1513 1511 1510 1511 1509 1507 1505 1504 1504 1505 1506 1506 1507
1450 1451 1453 1455 1457 1459 1460 1463 1464 1466 1469 1470 1473 1476 1478 1486 1490 1488 1483 1472 1470 1478 1478 1480 1483 1483 1485 1486 1490 1495 1496 1499 1500 1499 1502 1505 1507 1508 1508 1509 1511 1519 1527 1526 1528 1531 1529 1529 1531 1530 1529 1529 1529 1535 1541 1540 1540 1540 1540 1544 1549 1556 1559 1557 1559 1562 1559 1553 1552 1558 1556 1548 1540 1522 1509 1509 1508 1508 1510 1508 1507 1506 1506 1506 1506 1507 1506 1507
1449 1451 1453 1455 1457 1459 1461 1462 1464 1466 1467 1469 1473 1474 1478 1489 1487 1475 1473 1472 1470 1471 1472 1476 1480 1482 1485 1487 1491 1494 1494 1498 1499 1500 1502 1503 1507 1508 1507 1508 1507 1511 1520 1525 1529 1531 1531 1532 1532 1530 1530 1528 1527 1532 1540 1541 1541 1540 1538 1542 1548 1558 1563 1560 1564 1568 1559 1552 1554 1559 1554 1542 1528 1517 1509 1505 1504 1506 1508 1508 1507 1507 1507 1507 1507 1507 1507 1507
1448 1450 1453 1454 1456 1459 1460 1462 1464 1465 1467 1469 1471 1474 1481 1485 1473 1465 1470 1471 1469 1470 1472 1474 1479 1484 1485 1487 1490 1490 1492 1498 1499 1499 1502 1504 1508 1509 1507 1508 1508 1507 1513 1523 1528 1529 1531 1532 1528 1526 1526 1526 1525 1527 1530 1533 1537 1539 1538 1540 1541 1546 1551 1552 1555 1554 1549 1550 1556 1558 1548 1531 1518 1512 1508 1504 1504 1507 1507 1507 1508 1507 1507 1507 1507 1507 1508 1508
1447 1449 1451 1453 1455 1457 1459 1462 1463 1464 1466 1468 1469 1475 1479 1474 1465 1464 1467 1468 1469 1472 1474 1474 1478 1485 1488 1488 1490 1488 1489 1496 1499 1500 1502 1503 1505 1505 1504 1505 1507 1507 1510 1519 1526 1527 1529 1526 1522 1523 1522 1522 1524 1525 1525 1529 1537 1541 1543 1542 1540 1536 1538 1548 1555 1553 1552 1554 1554 1551 1540 1524 1515 1509 1506 1505 1504 1505 1507 1507 1507 1507 1506 1507 1506 1508 1508 1508
1447 1448 1450 1452 1454 1456 1458 1461 1463 1464 1465 1466 1470 1473 1469 1461 1461 1463 1461 1462 1466 1470 1475 1479 1481 1485 1490 1490 1491 1490 1488 1492 1498 1501 1502 1503 1502 1502 1501 1499 1501 1503 1502 1508 1520 1525 1527 1525 1523 1523 1523 1523 1524 1524 1526 1528 1532 1541 1542 1539 1539 1538 1535 1544 1557 1562 1560 1553 1546 1543 1533 1521 1518 1509 1502 1504 1503 1502 1505 1504 1504 1505 1505 1507 1507 1507 1508 1508
1448 1448 1450 1451 1453 1455 1458 1459 1462 1464 1464 1465 1467 1465 1459 1457 1459 1460 1458 1460 1463 1465 1471 1478 1481 1483 1487 1490 1490 1490 1488 1491 1497 1499 1500 1503 1500 1497 1498 1496 1495 1498 1496 1500 1509 1514 1518 1522 1525 1525 1524 1525 1525 1525 1527 1526 1528 1536 1539 1535 1536 1541 1539 1540 1548 1556 1560 1555 1544 1539 1532 1524 1522 1513 1503 1504 1504 1501 1502 1502 1501 1501 1503 1506 1507 1506 1507 1507
1448 1449 1449 1450 1452 1455 1457 1458 1460 1461 1464 1466 1463 1458 1457 1458 1459 1459 1459 1460 1461 1463 1467 1472 1475 1477 1481 1486 1487 1488 1488 1490 1496 1498 1498 1501 1495 1488 1492 1493 1492 1494 1494 1495 1502 1506 1509 1516 1525 1529 1526 1526 1526 1526 1528 1529 1528 1530 1531 1531 1534 1539 1542 1543 1546 1548 1554 1556 1543 1535 1534 1526 1520 1513 1504 1503 1503 1501 1501 1501 1500 1500 1502 1505 1505 1505 1506 1506
1448 1449 1450 1450 1452 1454 1455 1457 1459 1461 1463 1464 1460 1456 1457 1458 1458 1459 1459 1459 1460 1462 1464 1467 1470 1474 1478 1480 1482 1486 1486 1486 1492 1495 1494 1496 1492 1484 1485 1487 1488 1492 1494 1494 1498 1503 1506 1510 1522 1529 1528 1527 1528 1527 1528 1529 1530 1530 1530 1532 1533 1535 1537 1540 1543 1542 1544 1550 1544 1534 1529 1518 1509 1506 1501 1500 1501 1499 1500 1502 1501 1502 1503 1504 1504 1504 1505 1506
1447 1449 1449 1450 1452 1454 1455 1457 1459 1461 1462 1460 1457 1457 1458 1458 1458 1459 1458 1460 1461 1461 1463 1464 1465 1470 1475 1477 1479 1481 1483 1484 1489 1490 1488 1489 1489 1484 1483 1483 1485 1489 1492 1495 1497 1501 1505 1508 1516 1528 1531 1529 1526 1523 1522 1523 1526 1529 1530 1533 1534 1536 1538 1537 1540 1540 1537 1541 1543 1538 1526 1510 1503 1502 1496 1495 1498 1497 1499 1501 1501 1503 1503 1503 1504 1504 1505 1506
1446 1448 1448 1449 1451 1453 1455 1457 1458 1461 1461 1460 1458 1459 1459 1457 1458 1459 1458 1459 1460 1461 1462 1463 1463 1465 1469 1474 1476 1477 1481 1484 1486 1487 1486 1485 1484 1482 1480 1480 1482 1486 1491 1497 1498 1498 1503 1508 1516 1527 1531 1525 1519 1518 1518 1518 1517 1519 1522 1525 1526 1529 1535 1537 1540 1542 1538 1535 1537 1539 1527 1507 1498 1498 1494 1494 1496 1495 1498 1500 1501 1502 1502 1502 1504 1504 1505 1506
1445 1447 1447 1447 1450 1451 1453 1455 1458 1461 1462 1459 1458 1458 1458 1457 1457 1458 1458 1459 1460 1462 1462 1463 1464 1464 1465 1469 1472 1474 1478 1481 1484 1484 1482 1481 1480 1478 1477 1477 1479 1483 1487 1493 1494 1492 1499 1507 1514 1521 1524 1520 1517 1518 1519 1518 1517 1518 1519 1519 1520 1522 1525 1528 1533 1536 1537 1536 1536 1540 1532 1506 1493 1496 1494 1493 1496 1496 1499 1500 1500 1501 1501 1502 1503 1503 1504 1504
1444 1445 1445 1446 1448 1449 1452 1456 1458 1460 1460 1458 1457 1457 1457 1458 1458 1458 1458 1459 1460 1461 1463 1464 1464 1464 1465 1467 1468 1471 1474 1477 1480 1480 1478 1478 1478 1476 1476 1477 1478 1481 1483 1488 1492 1493 1497 1504 1509 1517 1521 1519 1517 1517 1518 1518 1519 1520 1520 1519 1521 1521 1519 1521 1526 1528 1530 1530 1531 1539 1534 1507 1493 1498 1496 1495 1497 1498 1499 1499 1499 1500 1500 1501 1502 1502 1504 1504
1443 1445 1445 1446 1447 1448 1451 1453 1455 1458 1458 1457 1458 1459 1458 1458 1457 1457 1458 1458 1460 1461 1463 1464 1464 1464 1466 1467 1467 1469 1472 1473 1475 1477 1476 1477 1476 1475 1476 1477 1478 1480 1481 1483 1486 1489 1495 1501 1506 1515 1521 1521 1521 1520 1518 1518 1520 1519 1518 1518 1518 1519 1521 1525 1527 1528 1527 1522 1522 1531 1525 1504 1496 1499 1497 1496 1498 1497 1498 1498 1498 1499 1500 1500 1502 1503 1505 1506
1443 1445 1445 1445 1447 1447 1449 1449 1450 1454 1456 1457 1459 1459 1459 1459 1456 1456 1457 1458 1459 1460 1462 1463 1463 1464 1466 1468 1469 1471 1472 1471 1472 1475 1476 1476 1475 1475 1475 1476 1477 1477 1477 1478 1479 1482 1489 1495 1498 1506 1514 1516 1516 1513 1508 1511 1518 1518 1515 1515 1515 1515 1519 1520 1522 1528 1525 1517 1519 1521 1510 1500 1499 1499 1496 1497 1498 1496 1497 1498 1498 1499 1500 1501 1503 1504 1505 1506
1443 1444 1444 1445 1446 1446 1447 1447 1448 1451 1452 1454 1456 1457 1458 1459 1456 1454 1457 1458 1458 1459 1460 1462 1463 1464 1466 1468 1469 1471 1472 1472 1473 1474 1476 1476 1475 1476 1475 1475 1476 1477 1477 1478 1478 1481 1487 1490 1490 1492 1496 1497 1496 1495 1496 1502 1510 1512 1509 1511 1513 1513 1514 1514 1519 1522 1516 1514 1520 1514 1502 1500 1500 1498 1496 1497 1498 1498 1497 1497 1498 1499 1500 1501 1502 1503 1503 1503
1442 1442 1441 1443 1444 1444 1445 1445 1446 1447 1448 1450 1453 1452 1454 1457 1456 1455 1457 1457 1457 1458 1460 1461 1462 1464 1466 1467 1469 1471 1472 1473 1474 1475 1476 1476 1476 1477 1476 1476 1476 1476 1477 1478 1478 1480 1484 1487 1487 1486 1486 1487 1487 1489 1493 1496 1499 1501 1503 1507 1509 1510 1513 1514 1513 1508 1506 1514 1516 1503 1501 1504 1496 1494 1497 1495 1496 1499 1496 1496 1498 1498 1500 1501 1501 1500 1500 1501
1441 1440 1439 1440 1441 1441 1441 1441 1442 1444 1445 1447 1449 1449 1451 1454 1455 1455 1456 1456 1456 1457 1459 1462 1461 1460 1462 1464 1467 1471 1472 1474 1475 1474 1474 1475 1476 1477 1477 1477 1477 1476 1477 1478 1478 1479 1481 1482 1485 1487 1487 1488 1490 1491 1493 1493 1493 1494 1497 1501 1503 1506 1509 1509 1505 1499 1501 1509 1502 1490 1498 1500 1488 1489 1495 1492 1493 1496 1494 1495 1497 1497 1498 1499 1499 1498 1497 1497
1440 1440 1439 1439 1439 1439 1438 1438 1440 1444 1445 1446 1446 1446 1448 1451 1451 1451 1452 1455 1457 1456 1458 1461 1460 1459 1461 1462 1465 1468 1470 1470 1471 1471 1472 1473 1476 1478 1477 1477 1477 1477 1476 1477 1479 1479 1479 1481 1486 1488 1487 1489 1493 1494 1493 1493 1494 1494 1495 1497 1499 1501 1501 1500 1497 1494 1497 1500 1493 1489 1498 1495 1485 1488 1492 1490 1492 1493 1492 1494 1495 1495 1497 1497 1496 1496 1495 1495
1439 1439 1438 1439 1439 1439 1439 1439 1440 1443 1444 1445 1446 1445 1444 1446 1446 1447 1448 1450 1453 1455 1455 1457 1457 1458 1460 1461 1463 1464 1464 1463 1464 1467 1469 1471 1474 1477 1476 1474 1475 1476 1476 1477 1479 1479 1479 1484 1488 1488 1488 1491 1493 1494 1494 1494 1494 1494 1495 1496 1496 1498 1498 1497 1496 1496 1499 1498 1493 1496 1502 1493 1484 1487 1490 1488 1491 1491 1491 1492 1492 1494 1496 1494 1493 1493 1493 1494
1437 1438 1438 1439 1439 1439 1439 1439 1440 1442 1443 1444 1443 1442 1442 1442 1442 1444 1445 1445 1447 1450 1452 1453 1456 1458 1460 1461 1462 1462 1461 1461 1462 1464 1466 1468 1470 1472 1473 1472 1473 1476 1477 1477 1479 1478 1478 1486 1490 1488 1489 1490 1491 1494 1496 1495 1495 1497 1494 1491 1493 1496 1497 1497 1496 1496 1496 1495 1495 1499 1499 1486 1480 1485 1487 1487 1489 1489 1489 1490 1491 1493 1493 1492 1491 1491 1491 1491
1436 1438 1438 1440 1440 1439 1439 1439 1440 1441 1439 1437 1437 1437 1439 1440 1440 1442 1445 1445 1444 1445 1447 1449 1453 1458 1460 1461 1460 1459 1460 1461 1462 1463 1465 1466 1467 1469 1471 1471 1472 1475 1477 1478 1480 1480 1480 1484 1488 1489 1489 1490 1490 1494 1495 1496 1499 1496 1485 1479 1485 1491 1492 1492 1492 1491 1491 1492 1494 1495 1487 1478 1479 1485 1485 1484 1487 1488 1487 1489 1492 1492 1490 1490 1490 1490 1489 1489